{"data":{"norad_id":65424,"epoch":"2026-05-24T16:17:32.583840Z","epoch_age_seconds":113114,"freshness":"FRESH","line1":"1 65424U 25192W   26144.67884935  .00016108  00000+0  52932-3 0  9996","line2":"2 65424  53.1567 239.0211 0001093  75.2855 284.8268 15.31723082 41020","mean_motion":15.31723082,"eccentricity":0.0001093,"inclination_deg":53.1567,"raan_deg":239.0211,"arg_perigee_deg":75.2855,"mean_anomaly_deg":284.8268,"bstar":0.00052932,"rev_number":4102,"period_min":94.011771247827,"perigee_km":469.92261511364,"apogee_km":471.41976458394,"semimajor_km":6848.8081898488,"source":"CELESTRAK","updated_at":"2026-05-25T13:38:20.803576Z"}}